CZ-6A DEB, 61346

Orbit data source: Space-Track

CZ-6A DEB, 61346 is space debris in LEO originally from a launch on Tue, 06 Aug 2024 UTC launched from the Taiyaun Space Center, China (TSC). Debris objects in space refer to the collection of defunct objects orbiting the Earth. Examples of debris include non-operational satellites, rocket bodies, and fragments generated from explosions, collisions, or faulty payload assembly.

Loading next visibility...
Identifier
61346, 2024-140VK
Orbit
LEO
Country
Flag of CNCN / PRC
Related business
Manufacturer
SAST
Mission
Spacecraft
Bus & Motor
Unknown
Mass
Unknown
Launch date (UTC)
2024-08-06 (1 year ago)
Launch vehicle
Unknown
Launch site
Taiyaun Space Center, China (TSC)
Object type
Payload
Rocket body
Debris
Shape & HBR
Unknown shape, 0.1 m
Radar Cross Section
Small (<0.1 m²)

Expand to show TLE details & history
Last TLE update: 1 day ago

TLE from 1 day ago
0 CZ-6A DEB
1 61346U 24140VK  25354.29153342  .00017660  00000-0  23623-2 0  9997
2 61346  88.9597 288.4446 0062054 124.4143 236.2968 14.78043944 68475
Epoch: 2025-12-20T06:59Z
TLE epoch observation values (Epoch: 2025-12-20T06:59:48.487Z)
Latitude
0.00003°
Longitude
94.37213°
Altitude
662.983 km
Speed
7.513 km/s
True Right ascension
19h 13m 46s
True Declination
0° 00' 00"
Sunlit
Object was in daylight at epoch
Visualization orbit readout
Latitude
Unknown
Longitude
Unknown
Altitude
Unknown
Speed
Unknown
Apparent Right ascension
Unknown
Apparent Declination
Unknown
Sunlit
N/A
Visualization observer readout
Local Sidereal Time
06:56:40
Azimuth
Unknown
Elevation
Unknown
Doppler factor
Unknown
Orbital elements
Apogee altitude
675.877 km
Perigee altitude
588.871 km
Semi-major axis
7,010.511 km
Eccentricity
0.00621
Inclination
88.9597°
RAAN
288.4446°
Arg. of periapsis
124.4143°
True anomaly
235.70778°
Mean anomaly
236.2968°
Eccentric anomaly
236.00203°
Mean motion
3.69759 °/min
Orbital period
97.36 mins
BSTAR
0.0023623
Loading maneuver chart data...
Computing Atmospheric mass density...
Loading historical data...
Loading historical data...
Loading historical data...
Loading historical data...
Loading historical data...
Loading historical data...
Loading historical data...

Documentation

Showing up to 5 results
|